RYR7 LPMA-LPPT

Flight info

Callsign RYR7
Flight time N/A
Altitude 37000
Route DEGUN DCT NARTA DCT ESUTI
Aircraft B38M/M-SDE1FGHILORVWXY/HB1

Departure

Time N/A
Airport Cristiano Ronaldo International Airport (LPMA)

Arrival

Time 2026-05-07 16:51
Airport Lisbon Humberto Delgado Airport (LPPT)
Time Latitude Longitude Altitude Speed Heading
2026-05-07 15:42 32.81300 -16.35828 15460 ft 386 kts 39°
2026-05-07 15:42 32.83224 -16.33626 16131 ft 392 kts 39°
2026-05-07 15:42 32.85219 -16.31341 16687 ft 401 kts 39°
2026-05-07 15:42 32.87249 -16.29014 17402 ft 405 kts 40°
2026-05-07 15:43 32.89270 -16.26696 18159 ft 409 kts 40°
2026-05-07 15:43 32.91338 -16.24322 18787 ft 413 kts 40°
2026-05-07 15:43 32.93429 -16.21921 19291 ft 420 kts 40°
2026-05-07 15:43 32.95545 -16.19489 19839 ft 424 kts 41°
2026-05-07 15:44 32.97661 -16.17056 20358 ft 430 kts 41°
2026-05-07 15:44 32.99834 -16.14556 20872 ft 435 kts 41°
2026-05-07 15:44 33.02027 -16.12030 21393 ft 440 kts 41°
2026-05-07 15:44 33.04228 -16.09493 21901 ft 445 kts 41°
2026-05-07 15:45 33.06486 -16.06890 22422 ft 450 kts 42°
2026-05-07 15:45 33.08751 -16.04275 22917 ft 455 kts 42°
2026-05-07 15:45 33.11013 -16.01662 23407 ft 460 kts 42°
2026-05-07 15:45 33.13326 -15.98989 23810 ft 465 kts 43°
2026-05-07 15:46 33.17985 -15.93598 24753 ft 471 kts 43°
2026-05-07 15:46 33.20343 -15.90866 25170 ft 474 kts 43°
2026-05-07 15:46 33.22733 -15.88094 25592 ft 477 kts 43°
2026-05-07 15:47 33.25115 -15.85330 25998 ft 481 kts 43°
2026-05-07 15:47 33.27499 -15.82562 26401 ft 484 kts 43°
2026-05-07 15:47 33.29927 -15.79739 26790 ft 488 kts 43°
2026-05-07 15:47 33.32372 -15.76894 27187 ft 491 kts 43°
2026-05-07 15:48 33.34837 -15.74025 27572 ft 494 kts 43°
2026-05-07 15:48 33.37296 -15.71161 27949 ft 497 kts 43°
2026-05-07 15:48 33.39797 -15.68244 28322 ft 501 kts 43°
2026-05-07 15:48 33.42299 -15.65380 28685 ft 504 kts 42°
2026-05-07 15:49 33.44865 -15.62516 29016 ft 507 kts 42°
2026-05-07 15:49 33.47447 -15.59617 29377 ft 510 kts 42°
2026-05-07 15:49 33.50027 -15.56715 29758 ft 513 kts 43°
2026-05-07 15:49 33.52649 -15.53763 30079 ft 516 kts 43°
2026-05-07 15:50 33.55277 -15.50801 30391 ft 519 kts 43°
2026-05-07 15:50 33.57895 -15.47848 30716 ft 521 kts 43°
2026-05-07 15:50 33.60536 -15.44866 31040 ft 523 kts 43°
2026-05-07 15:50 33.63195 -15.41861 31354 ft 524 kts 43°
2026-05-07 15:51 33.65838 -15.38872 31668 ft 526 kts 43°
2026-05-07 15:51 33.68503 -15.35854 31977 ft 528 kts 43°
2026-05-07 15:51 33.71182 -15.32819 32290 ft 530 kts 43°
2026-05-07 15:51 33.73885 -15.29754 32589 ft 532 kts 42°
2026-05-07 15:52 33.76577 -15.26698 32902 ft 533 kts 43°
2026-05-07 15:52 33.79285 -15.23620 33256 ft 535 kts 43°
2026-05-07 15:52 33.81961 -15.20577 33701 ft 533 kts 43°
2026-05-07 15:52 33.84666 -15.17498 34141 ft 530 kts 43°
2026-05-07 15:53 33.87309 -15.14487 34505 ft 529 kts 43°
2026-05-07 15:53 33.89988 -15.11433 34863 ft 528 kts 43°
2026-05-07 15:53 33.92664 -15.08379 35219 ft 526 kts 43°
2026-05-07 15:53 33.95313 -15.05353 35561 ft 525 kts 43°
2026-05-07 15:54 33.97921 -15.02370 35884 ft 524 kts 42°
2026-05-07 15:54 34.00578 -14.99329 36211 ft 523 kts 42°
2026-05-07 15:54 34.03210 -14.96314 36528 ft 522 kts 42°
2026-05-07 15:54 34.05857 -14.93279 36800 ft 521 kts 43°
2026-05-07 15:55 34.08491 -14.90257 37034 ft 522 kts 43°
2026-05-07 15:55 34.13721 -14.84246 36977 ft 520 kts 43°
2026-05-07 15:56 34.18964 -14.78211 36988 ft 520 kts 43°
2026-05-07 15:56 34.24195 -14.72178 36993 ft 520 kts 43°
2026-05-07 15:57 34.29413 -14.66150 36980 ft 520 kts 43°
2026-05-07 15:57 34.34627 -14.60115 36996 ft 520 kts 43°
2026-05-07 15:58 34.39880 -14.54024 36992 ft 519 kts 44°
2026-05-07 15:58 34.45075 -14.47990 36992 ft 519 kts 44°
2026-05-07 15:59 34.50297 -14.41912 36987 ft 519 kts 44°
2026-05-07 15:59 34.55482 -14.35867 36988 ft 519 kts 44°
2026-05-07 16:00 34.60697 -14.29775 36983 ft 519 kts 44°
2026-05-07 16:00 34.65906 -14.23679 36982 ft 519 kts 44°
2026-05-07 16:01 34.71080 -14.17615 36969 ft 519 kts 44°
2026-05-07 16:01 34.76298 -14.11486 36977 ft 520 kts 44°
2026-05-07 16:02 34.80629 -14.06390 36990 ft 520 kts 44°
2026-05-07 16:02 34.86683 -13.99255 36981 ft 520 kts 44°
2026-05-07 16:03 34.91022 -13.94131 36983 ft 520 kts 44°
2026-05-07 16:03 34.96191 -13.88017 37018 ft 520 kts 45°
2026-05-07 16:04 35.01393 -13.81852 36971 ft 521 kts 44°
2026-05-07 16:04 35.06591 -13.75681 36971 ft 523 kts 44°
2026-05-07 16:05 35.11812 -13.69470 36976 ft 522 kts 44°
2026-05-07 16:05 35.17015 -13.63269 36978 ft 522 kts 44°
2026-05-07 16:06 35.22211 -13.57065 36981 ft 522 kts 44°
2026-05-07 16:06 35.27380 -13.50883 36974 ft 522 kts 44°
2026-05-07 16:07 35.32570 -13.44662 36973 ft 522 kts 44°
2026-05-07 16:07 35.37785 -13.38399 36976 ft 522 kts 44°
2026-05-07 16:08 35.42941 -13.32197 36977 ft 522 kts 44°
2026-05-07 16:08 35.48112 -13.25963 36976 ft 522 kts 44°
2026-05-07 16:09 35.53294 -13.19704 36999 ft 522 kts 44°
2026-05-07 16:09 35.58474 -13.13437 36979 ft 522 kts 44°
2026-05-07 16:10 35.63624 -13.07194 36974 ft 522 kts 44°
2026-05-07 16:10 35.68808 -13.00896 36979 ft 522 kts 44°
2026-05-07 16:11 35.73946 -12.94644 36979 ft 522 kts 44°
2026-05-07 16:11 35.79100 -12.88360 36976 ft 522 kts 44°
2026-05-07 16:12 35.84264 -12.82052 36987 ft 522 kts 44°
2026-05-07 16:12 35.89400 -12.75769 36946 ft 521 kts 44°
2026-05-07 16:13 35.94546 -12.69461 36975 ft 520 kts 44°
2026-05-07 16:13 35.99696 -12.63135 36977 ft 520 kts 44°
2026-05-07 16:14 36.04808 -12.56852 36977 ft 520 kts 43°
2026-05-07 16:14 36.10119 -12.50819 37012 ft 520 kts 41°
2026-05-07 16:15 36.15435 -12.44740 36969 ft 517 kts 42°
2026-05-07 16:15 36.20707 -12.38697 36942 ft 517 kts 41°
2026-05-07 16:16 36.25992 -12.32625 36973 ft 517 kts 41°
2026-05-07 16:16 36.31250 -12.26574 36972 ft 517 kts 41°
2026-05-07 16:17 36.36516 -12.20502 37004 ft 517 kts 41°
2026-05-07 16:17 36.41765 -12.14438 36966 ft 516 kts 42°
2026-05-07 16:18 36.47009 -12.08368 36969 ft 516 kts 42°
2026-05-07 16:18 36.52286 -12.02249 36955 ft 516 kts 41°
2026-05-07 16:19 36.57515 -11.96172 36969 ft 517 kts 41°
2026-05-07 16:19 36.62770 -11.90053 36969 ft 517 kts 41°
2026-05-07 16:20 36.68014 -11.83935 36961 ft 516 kts 41°
2026-05-07 16:20 36.73241 -11.77827 36966 ft 516 kts 41°
2026-05-07 16:21 36.78470 -11.71702 36963 ft 516 kts 41°
2026-05-07 16:21 36.83700 -11.65565 36960 ft 516 kts 41°
2026-05-07 16:22 36.88940 -11.59404 36957 ft 516 kts 41°
2026-05-07 16:22 36.94118 -11.53303 36973 ft 516 kts 42°
2026-05-07 16:23 36.99378 -11.47094 36956 ft 516 kts 42°
2026-05-07 16:23 37.04570 -11.40953 36958 ft 516 kts 42°
2026-05-07 16:24 37.09761 -11.34802 36951 ft 516 kts 42°
2026-05-07 16:24 37.14984 -11.28599 36949 ft 515 kts 40°
2026-05-07 16:25 37.20165 -11.22434 36972 ft 515 kts 41°
2026-05-07 16:25 37.25362 -11.16238 36961 ft 515 kts 41°
2026-05-07 16:26 37.30535 -11.10058 36958 ft 515 kts 41°
2026-05-07 16:26 37.35736 -11.03832 36959 ft 515 kts 41°
2026-05-07 16:27 37.40910 -10.97626 36932 ft 511 kts 41°
2026-05-07 16:27 37.43451 -10.94574 36263 ft 510 kts 41°
2026-05-07 16:27 37.46024 -10.91480 35728 ft 506 kts 41°
2026-05-07 16:27 37.48558 -10.88429 35342 ft 500 kts 41°
2026-05-07 16:28 37.51052 -10.85426 34966 ft 493 kts 41°
2026-05-07 16:28 37.53518 -10.82451 34622 ft 486 kts 41°
2026-05-07 16:28 37.55924 -10.79547 34245 ft 481 kts 41°
2026-05-07 16:28 37.58343 -10.76624 33761 ft 479 kts 41°
2026-05-07 16:29 37.60742 -10.73723 33307 ft 474 kts 41°
2026-05-07 16:29 37.63122 -10.70842 32855 ft 470 kts 41°
2026-05-07 16:29 37.65473 -10.67993 32425 ft 466 kts 41°
2026-05-07 16:29 37.67772 -10.65205 32008 ft 462 kts 41°
2026-05-07 16:30 37.70088 -10.62394 31589 ft 458 kts 42°
2026-05-07 16:30 37.72387 -10.59603 31195 ft 455 kts 42°
2026-05-07 16:30 37.74631 -10.56874 30775 ft 451 kts 41°
2026-05-07 16:30 37.76887 -10.54130 30432 ft 446 kts 41°
2026-05-07 16:31 37.79118 -10.51414 30127 ft 440 kts 41°
2026-05-07 16:31 37.81318 -10.48733 29686 ft 437 kts 41°
2026-05-07 16:31 37.83469 -10.46108 29243 ft 433 kts 41°
2026-05-07 16:31 37.85649 -10.43416 28782 ft 431 kts 45°
2026-05-07 16:32 37.87667 -10.40683 28367 ft 428 kts 45°
2026-05-07 16:32 37.89704 -10.37942 27925 ft 426 kts 45°
2026-05-07 16:32 37.91733 -10.35224 27507 ft 423 kts 45°
2026-05-07 16:32 37.93756 -10.32517 27107 ft 420 kts 45°
2026-05-07 16:33 37.95764 -10.29829 26716 ft 417 kts 45°
2026-05-07 16:33 37.97743 -10.27177 26332 ft 415 kts 45°
2026-05-07 16:33 37.99727 -10.24518 25947 ft 413 kts 46°
2026-05-07 16:33 38.01669 -10.21912 25580 ft 410 kts 46°
2026-05-07 16:34 38.03625 -10.19285 25212 ft 408 kts 45°
2026-05-07 16:34 38.05572 -10.16670 24875 ft 405 kts 46°
2026-05-07 16:34 38.07505 -10.14071 24500 ft 403 kts 46°
2026-05-07 16:34 38.09399 -10.11520 24154 ft 401 kts 46°
2026-05-07 16:35 38.11308 -10.08949 23796 ft 399 kts 46°
2026-05-07 16:35 38.13215 -10.06378 23436 ft 397 kts 46°
2026-05-07 16:35 38.15085 -10.03856 23044 ft 394 kts 46°
2026-05-07 16:35 38.16979 -10.01342 22671 ft 391 kts 42°
2026-05-07 16:36 38.19220 -9.99433 22311 ft 384 kts 22°
2026-05-07 16:36 38.21679 -9.98104 21874 ft 383 kts 21°
2026-05-07 16:36 38.24093 -9.96800 21549 ft 379 kts 21°
2026-05-07 16:36 38.26534 -9.95499 21127 ft 379 kts 20°
2026-05-07 16:37 38.28958 -9.94218 20797 ft 376 kts 20°
2026-05-07 16:37 38.31382 -9.92940 20424 ft 374 kts 20°
2026-05-07 16:37 38.33784 -9.91674 20085 ft 372 kts 20°
2026-05-07 16:37 38.36149 -9.90429 19751 ft 369 kts 21°
2026-05-07 16:38 38.38525 -9.89176 19413 ft 367 kts 21°
2026-05-07 16:38 38.40881 -9.87933 19071 ft 365 kts 21°
2026-05-07 16:38 38.43254 -9.86681 18530 ft 371 kts 21°
2026-05-07 16:38 38.45648 -9.85416 17989 ft 375 kts 21°
2026-05-07 16:39 38.48040 -9.84152 17425 ft 378 kts 22°
2026-05-07 16:39 38.50486 -9.82858 16843 ft 381 kts 22°
2026-05-07 16:39 38.52806 -9.81245 16271 ft 381 kts 40°
2026-05-07 16:39 38.54483 -9.78651 15727 ft 377 kts 65°
2026-05-07 16:40 38.55255 -9.75477 15225 ft 373 kts 81°
2026-05-07 16:40 38.55869 -9.72295 14707 ft 374 kts 78°
2026-05-07 16:40 38.56529 -9.69075 14220 ft 374 kts 77°
2026-05-07 16:40 38.57198 -9.65854 13744 ft 373 kts 77°
2026-05-07 16:41 38.57846 -9.62677 13264 ft 370 kts 81°
2026-05-07 16:41 38.57932 -9.59432 12761 ft 363 kts 102°
2026-05-07 16:41 38.57032 -9.56481 12288 ft 354 kts 127°
2026-05-07 16:41 38.55277 -9.54343 11844 ft 346 kts 148°
2026-05-07 16:42 38.53194 -9.52897 11418 ft 342 kts 156°
2026-05-07 16:42 38.51036 -9.51625 11040 ft 338 kts 156°
2026-05-07 16:42 38.48933 -9.50378 10687 ft 334 kts 156°
2026-05-07 16:42 38.46838 -9.49134 10329 ft 327 kts 156°
2026-05-07 16:43 38.44808 -9.47928 9978 ft 313 kts 156°
2026-05-07 16:43 38.42891 -9.46789 9610 ft 300 kts 156°
2026-05-07 16:43 38.41221 -9.45274 9184 ft 293 kts 131°
2026-05-07 16:43 38.40282 -9.43002 8787 ft 288 kts 108°
2026-05-07 16:44 38.40061 -9.40492 8429 ft 282 kts 88°
2026-05-07 16:44 38.40466 -9.38112 8082 ft 278 kts 69°
2026-05-07 16:44 38.41503 -9.36051 7661 ft 275 kts 46°
2026-05-07 16:44 38.43035 -9.34614 7196 ft 273 kts 27°
2026-05-07 16:45 38.44708 -9.33537 6750 ft 271 kts 27°
2026-05-07 16:45 38.46378 -9.32431 6299 ft 269 kts 27°
2026-05-07 16:45 38.48035 -9.31319 5808 ft 267 kts 27°
2026-05-07 16:45 38.49667 -9.30217 5377 ft 264 kts 26°
2026-05-07 16:46 38.51275 -9.29125 5015 ft 260 kts 27°
2026-05-07 16:46 38.52869 -9.28040 4732 ft 259 kts 26°
2026-05-07 16:46 38.54438 -9.26968 4452 ft 258 kts 27°
2026-05-07 16:46 38.55975 -9.25799 4244 ft 254 kts 31°
2026-05-07 16:47 38.57488 -9.24682 4075 ft 246 kts 23°
2026-05-07 16:47 38.58985 -9.23805 4033 ft 233 kts 20°
2026-05-07 16:47 38.60465 -9.23011 3823 ft 226 kts 18°
2026-05-07 16:47 38.61903 -9.22251 3516 ft 222 kts 19°
2026-05-07 16:48 38.63331 -9.21495 3228 ft 220 kts 20°
2026-05-07 16:48 38.64723 -9.20751 2905 ft 211 kts 18°
2026-05-07 16:48 38.66024 -9.20053 2617 ft 193 kts 19°
2026-05-07 16:48 38.66807 -9.19631 2478 ft 179 kts 16°
2026-05-07 16:49 38.68315 -9.18835 2134 ft 175 kts 18°
2026-05-07 16:49 38.69435 -9.18239 1912 ft 175 kts 17°
2026-05-07 16:49 38.70554 -9.17643 1685 ft 173 kts 18°
2026-05-07 16:49 38.71289 -9.17250 1524 ft 168 kts 17°
2026-05-07 16:50 38.72640 -9.16524 1206 ft 154 kts 16°
2026-05-07 16:50 38.73304 -9.16174 1111 ft 151 kts 17°
2026-05-07 16:50 38.74571 -9.15495 819 ft 147 kts 17°
2026-05-07 16:50 38.75199 -9.15160 690 ft 147 kts 17°
2026-05-07 16:51 38.76159 -9.14650 507 ft 145 kts 18°
2026-05-07 16:51 38.77040 -9.14190 357 ft 128 kts 21°
2026-05-07 16:51 38.77673 -9.13842 367 ft 66 kts 22°
2026-05-07 16:51 38.77961 -9.13683 368 ft 28 kts 22°
2026-05-07 16:52 38.78150 -9.13583 371 ft 30 kts 23°
2026-05-07 16:52 38.78321 -9.13437 369 ft 31 kts 53°
2026-05-07 16:52 38.78378 -9.13328 366 ft 8 kts 77°
2026-05-07 16:52 38.78354 -9.13262 368 ft 10 kts 145°
2026-05-07 16:53 38.78293 -9.13279 364 ft 10 kts 203°
2026-05-07 16:53 38.78219 -9.13319 361 ft 13 kts 202°
2026-05-07 16:53 38.78123 -9.13367 365 ft 16 kts 201°
2026-05-07 16:53 38.78009 -9.13425 363 ft 19 kts 202°
2026-05-07 16:54 38.77878 -9.13498 361 ft 22 kts 205°
2026-05-07 16:54 38.77731 -9.13576 360 ft 24 kts 202°
2026-05-07 16:54 38.77620 -9.13590 360 ft 17 kts 167°
2026-05-07 16:54 38.77484 -9.13552 354 ft 22 kts 168°
2026-05-07 16:55 38.77321 -9.13508 349 ft 25 kts 168°
2026-05-07 16:55 38.77141 -9.13461 349 ft 28 kts 168°
2026-05-07 16:55 38.76946 -9.13411 352 ft 26 kts 168°
2026-05-07 16:55 38.76803 -9.13372 347 ft 11 kts 168°
2026-05-07 16:56 38.76729 -9.13396 353 ft 12 kts 214°
2026-05-07 16:56 38.76662 -9.13465 350 ft 12 kts 238°
2026-05-07 16:56 38.76601 -9.13667 351 ft 9 kts 183°
2026-05-07 16:57 38.76563 -9.13632 353 ft 6 kts 100°
2026-05-07 16:57 38.76544 -9.13604 359 ft 4 kts 164°
2026-05-07 16:57 38.76508 -9.13594 353 ft 6 kts 169°
2026-05-07 16:57 38.76495 -9.13591 350 ft 0 kts 168°
2026-05-07 16:58 38.76493 -9.13590 350 ft 0 kts 168°